Terug naar catalogus

FREGAT DEB

LostUNKNOWN
NORAD 46104·DEBRIS·🇷🇺 Russia

Gelanceerd Jul 18, 2011 vanaf Baikonur Cosmodrome

Loading…

Volgende Passages (komende 24 uur)

TLE

VerouderdSource: Space-Track

Epoch: Aug 10, 2020, 06:54 UTC

1 46104U 11037JP  20223.28752573  .00042808  00000-0  37886-1 0  9990
2 46104  51.1389 198.3423 1343861 225.9440 122.1619 11.91224560   504

Volg FREGAT DEB in realtime met AllMySat

Download on the App Store